STARLINK-11287, 60998

Orbit data source: Space-Track

STARLINK-11287, 60998 is a payload satellite owned by SpaceX/Seattle (US) in LEO that was launched on Thu, 05 Sep 2024 UTC via an FALCON 9 launch vehicle from the Air Force Eastern Test Range (AFETR). Payload-class satellites include a variety of spacecraft equipped with specific instruments for various scientific and technological missions. These include communications satellites like Starlink; space stations such as the ISS; scientific satellites like the Hubble; Earth observation satellites from companies like Planet Labs, Umbra, and HawkEye 360; GPS; miniature CubeSats for education and research; and military/defense satellites.

Loading next visibility...
Identifier
60998, 2024-158J
Orbit
LEO
Country
Flag of USUS
Related business
Manufacturer
SpaceX/Seattle
Mission
Operational Commercial Communications
Bus & Motor
STARLINK V2MD, Unknown motor
Mass
960 kg wet, ~910 kg dry
Launch date (UTC)
2024-09-05 (1 year ago)
Launch vehicle
FALCON 9
Launch site
Air Force Eastern Test Range (AFETR)
Object type
Payload
Rocket body
Debris
Shape & HBR
Box + 2 Pan, 18.1 m
Radar Cross Section
36.964 m², Large (>1 m²)

Expand to show TLE details & history
Last TLE update: 17 hours ago

TLE from 17 hours ago
0 STARLINK-11287
1 60998U 24158J   25348.25031120  .00000741  00000-0  10984-4 0  9996
2 60998  53.1591 342.5781 0001482  93.5458 266.5729 15.69688103 74169
Epoch: 2025-12-14T06:00Z
TLE epoch observation values (Epoch: 2025-12-14T06:00:26.887Z)
Latitude
-0.00007°
Longitude
169.3001°
Altitude
360.764 km
Speed
7.694 km/s
True Right ascension
22h 50m 18s
True Declination
0° 00' 00"
Sunlit
Object was in daylight at epoch
Visualization orbit readout
Latitude
Unknown
Longitude
Unknown
Altitude
Unknown
Speed
Unknown
Apparent Right ascension
Unknown
Apparent Declination
Unknown
Sunlit
N/A
Visualization observer readout
Local Sidereal Time
21:54:18
Azimuth
Unknown
Elevation
Unknown
Doppler factor
Unknown
Orbital elements
Apogee altitude
361.049 km
Perigee altitude
359.052 km
Semi-major axis
6,738.187 km
Eccentricity
0.00015
Inclination
53.1591°
RAAN
342.5781°
Arg. of periapsis
93.5458°
True anomaly
266.55595°
Mean anomaly
266.5729°
Eccentric anomaly
266.56442°
Mean motion
3.924 °/min
Orbital period
91.74 mins
BSTAR
0.000010984
Loading maneuver chart data...
Computing Atmospheric mass density...
Loading historical data...
Loading historical data...
Loading historical data...
Loading historical data...
Loading historical data...
Loading historical data...
Loading historical data...

Documentation

Showing up to 5 results
|